Overview Statistics Trail Chart Weather Telemetry Raw packets
 

This is the latest recevied weather packets stored in our database for station/object I0UVN-10. If no packets are shown the sender has not sent any weather packets the latest 10 day(s).

<< 26 27 28 29 30 31 32 >>
Time Temp. Humidity Pressure Rain* Wind** Luminosity Snow
1787889426 28.33° C 50% 1022.1 hPa - - - -
1787888227 27.78° C 47% 1022.1 hPa - - - -
1787887027 28.33° C 49% 1022.2 hPa - - - -
1787885827 27.78° C 50% 1021.9 hPa - - - -
1787884625 27.78° C 51% 1021.8 hPa - - - -
1787883425 27.78° C 51% 1021.9 hPa - - - -
1787882225 27.78° C 52% 1022 hPa - - - -
1787881025 27.78° C 50% 1022.1 hPa - - - -
1787879825 28.89° C 54% 1022.4 hPa - - - -
1787878624 28.89° C 51% 1022.4 hPa - - - -
1787877424 28.89° C 53% 1022.5 hPa - - - -
1787876224 28.89° C 56% 1022.6 hPa - - - -
1787875087 29.44° C 56% 1022.6 hPa - - - -
1787875023 29.44° C 56% 1022.6 hPa - - - -
1787873823 29.44° C 55% 1022.9 hPa - - - -
1787872623 29.44° C 55% 1023 hPa - - - -
1787871423 28.89° C 55% 1023 hPa - - - -
1787870223 28.89° C 54% 1023 hPa - - - -
1787869023 29.44° C 55% 1023.3 hPa - - - -
1787867823 28.89° C 56% 1023.4 hPa - - - -
1787866623 29.44° C 57% 1023.3 hPa - - - -
1787865422 28.89° C 59% 1023.4 hPa - - - -
1787864222 29.44° C 61% 1023.4 hPa - - - -
1787863022 29.44° C 59% 1023.3 hPa - - - -
1787861822 29.44° C 59% 1023.3 hPa - - - -

* Rain since midnight (hover to see other rain measurements)
** Current wind speed in m/s (hover to see current wind gust speed)